Date String (YYYY-MM-DD hh:mm:ss) UTC,Instrument flags,absolute air pressure of the measurement (hPa),sample flow rate (lpm),inlet stack bypass flow (lpm),air temperature of the measurement (°C),ambient temperature measured by the external sensor (°C),aerosol sample conditioner tube jacket temperature (°C),OPC LED temperature (°C),internal box temperature (°C),relative humidity of the measurement (%),span deviation,mass concentration of particles derived from Lorenz-Mie calculation of OPC scattering (μg/m³),mass concentration of particles derived from Lorenz-Mie calculation of OPC scattering (μg/m³),mass concentration of particles derived from Lorenz-Mie calculation of OPC scattering (μg/m³)
DateTimeUTC,F1_M11,P_M11,Q1_M11,Q2_M11,T1_M11,T2_M11,T3_M11,T4_M11,T5_M11,U1_M11,ZSPAN_M11,X0_M11,X2_M11,X1_M11
2023-10-04 10:00:00,SystemResetWarning,0831.6,5.00,000.00,028.9,027.5,000.0,037.3,030.5,15.5,0000.0,0005.73,0002.58,0001.85
2023-10-04 10:01:00,SystemResetWarning,0831.6,5.00,000.00,028.9,027.5,000.0,037.3,030.5,15.6,0000.0,0005.68,0002.57,0001.85
2023-10-04 10:02:00,SystemResetWarning,0831.6,5.00,000.00,028.9,027.5,000.0,037.3,030.5,15.6,0000.0,0005.47,0002.52,0001.85
2023-10-04 10:03:00,SystemResetWarning,0831.6,4.99,000.00,028.9,027.5,000.0,037.3,030.5,15.6,0000.0,0005.44,0002.54,0001.85
2023-10-04 10:04:00,SystemResetWarning,0831.6,5.00,000.00,028.9,027.5,000.0,037.3,030.5,15.6,0000.0,0005.10,0002.51,0001.84
2023-10-04 10:05:00,SystemResetWarning,0831.6,5.00,000.00,028.9,027.6,000.0,037.3,030.6,15.6,0000.0,0005.10,0002.55,0001.84
2023-10-04 10:06:00,SystemResetWarning,0831.6,5.00,000.00,028.9,027.6,000.0,037.3,030.6,15.6,0000.0,0005.63,0002.48,0001.85
2023-10-04 10:07:00,SystemResetWarning,0831.6,5.00,000.00,028.9,027.6,000.0,037.3,030.5,15.6,0000.0,0005.59,0002.42,0001.84
2023-10-04 10:08:00,SystemResetWarning,0831.6,5.00,000.00,028.9,027.6,000.0,037.3,030.5,15.6,0000.0,0005.68,0002.43,0001.84
2023-10-04 10:09:00,SystemResetWarning,0831.7,5.01,000.00,028.9,027.6,000.0,037.3,030.5,15.6,0000.0,0005.71,0002.46,0001.85
2023-10-04 10:10:00,SystemResetWarning,0831.7,5.01,000.00,028.9,027.6,000.0,037.4,030.5,15.6,0000.0,0006.04,0002.49,0001.87
2023-10-04 10:11:00,SystemResetWarning,0831.7,4.99,000.00,028.9,027.6,000.0,037.3,030.6,15.6,0000.0,0007.64,0002.47,0001.87
2023-10-04 10:12:00,SystemResetWarning,0831.7,5.00,000.00,028.9,027.6,000.0,037.3,030.6,15.6,0000.0,0008.33,0002.48,0001.88
2023-10-04 10:13:00,SystemResetWarning,0831.6,5.00,000.00,028.9,027.7,000.0,037.3,030.6,15.6,0000.0,0008.37,0002.50,0001.86
2023-10-04 10:14:00,SystemResetWarning,0831.7,4.99,000.00,028.9,027.7,000.0,037.4,030.6,15.6,0000.0,0008.40,0002.46,0001.86
2023-10-04 10:15:00,SystemResetWarning,0831.7,5.00,000.00,028.9,027.7,000.0,037.4,030.5,15.7,0000.0,0008.39,0002.45,0001.86
2023-10-04 10:16:00,SystemResetWarning,0831.7,5.01,000.00,028.9,027.6,000.0,037.4,030.5,15.7,0000.0,0008.39,0002.43,0001.86
2023-10-04 10:17:00,SystemResetWarning,0831.7,5.00,000.00,028.9,027.6,000.0,037.4,030.5,15.8,0000.0,0007.81,0002.43,0001.85
2023-10-04 10:18:00,SystemResetWarning,0831.7,4.99,000.00,028.9,027.6,000.0,037.4,030.5,15.9,0000.0,0008.54,0002.43,0001.85
2023-10-04 10:19:00,SystemResetWarning,0831.7,4.99,000.00,028.9,027.6,000.0,037.4,030.5,15.9,0000.0,0008.87,0002.43,0001.84
2023-10-04 10:20:00,SystemResetWarning,0831.7,4.99,000.00,028.9,027.6,000.0,037.4,030.5,15.9,0000.0,0008.91,0002.41,0001.84
2023-10-04 10:21:00,SystemResetWarning,0831.7,5.00,000.00,028.9,027.6,000.0,037.4,030.5,15.9,0000.0,0008.98,0002.40,0001.84
2023-10-04 10:22:00,SystemResetWarning,0831.7,5.00,000.00,028.9,027.6,000.0,037.4,030.5,16.0,0000.0,0008.53,0002.38,0001.84
2023-10-04 10:23:00,SystemResetWarning,0831.7,5.00,000.00,028.9,027.6,000.0,037.4,030.5,16.0,0000.0,0008.06,0002.38,0001.85
2023-10-04 10:24:00,SystemResetWarning,0831.7,5.00,000.00,028.9,027.5,000.0,037.4,030.4,16.0,0000.0,0008.46,0002.45,0001.87
2023-10-04 10:25:00,SystemResetWarning,0831.7,5.00,000.00,028.9,027.5,000.0,037.4,030.4,16.0,0000.0,0008.60,0002.55,0001.89
2023-10-04 10:26:00,SystemResetWarning,0831.7,5.00,000.00,028.9,027.5,000.0,037.3,030.4,16.0,0000.0,0008.50,0002.58,0001.90
2023-10-04 10:27:00,SystemResetWarning,0831.7,5.00,000.00,028.8,027.4,000.0,037.3,030.4,16.1,0000.0,0008.66,0002.61,0001.91
2023-10-04 10:28:00,SystemResetWarning,0831.7,5.00,000.00,028.8,027.4,000.0,037.3,030.4,16.1,0000.0,0008.65,0002.60,0001.92
2023-10-04 10:29:00,SystemResetWarning,0831.7,5.00,000.00,028.8,027.4,000.0,037.3,030.4,16.1,0000.0,0008.20,0002.66,0001.93
2023-10-04 10:30:00,SystemResetWarning,0831.7,5.00,000.00,028.8,027.4,000.0,037.3,030.4,16.1,0000.0,0008.52,0002.68,0001.93
2023-10-04 10:31:00,SystemResetWarning,0831.9,5.00,000.00,028.8,027.4,000.0,037.3,030.4,16.1,0000.0,0008.42,0002.66,0001.94
2023-10-04 10:32:00,SystemResetWarning,0832.1,5.00,000.00,028.8,027.4,000.0,037.3,030.4,16.1,0000.0,0008.30,0002.63,0001.93
2023-10-04 10:33:00,SystemResetWarning,0832.1,4.99,000.00,028.8,027.3,000.0,037.3,030.3,16.2,0000.0,0008.05,0002.62,0001.91
2023-10-04 10:34:00,SystemResetWarning,0832.2,5.00,000.00,028.8,027.3,000.0,037.3,030.4,16.2,0000.0,0007.33,0002.63,0001.89
2023-10-04 10:35:00,SystemResetWarning,0832.2,5.00,000.00,028.8,027.4,000.0,037.3,030.4,16.2,0000.0,0006.75,0002.55,0001.88
2023-10-04 10:36:00,SystemResetWarning,0832.1,5.00,000.00,028.8,027.4,000.0,037.3,030.4,16.2,0000.0,0006.84,0002.54,0001.89
2023-10-04 10:37:00,SystemResetWarning,0832.2,5.00,000.00,028.8,027.4,000.0,037.3,030.4,16.2,0000.0,0006.98,0002.51,0001.89
2023-10-04 10:38:00,SystemResetWarning,0832.2,5.00,000.00,028.8,027.5,000.0,037.3,030.4,16.2,0000.0,0006.53,0002.46,0001.87
2023-10-04 10:39:00,SystemResetWarning,0832.0,5.00,000.00,028.8,027.5,000.0,037.3,030.5,16.1,0000.0,0006.46,0002.45,0001.87
2023-10-04 10:40:00,SystemResetWarning,0831.8,5.00,000.00,028.8,027.6,000.0,037.3,030.5,16.1,0000.0,0006.78,0002.39,0001.86
2023-10-04 10:41:00,SystemResetWarning,0831.8,5.00,000.00,028.9,027.6,000.0,037.3,030.5,16.1,0000.0,0007.40,0002.34,0001.85
2023-10-04 10:42:00,SystemResetWarning,0831.8,5.00,000.00,028.9,027.6,000.0,037.3,030.5,16.1,0000.0,0007.62,0002.34,0001.83
2023-10-04 10:43:00,SystemResetWarning,0831.8,5.00,000.00,028.9,027.7,000.0,037.3,030.6,16.1,0000.0,0007.85,0002.32,0001.83
2023-10-04 10:44:00,SystemResetWarning,0831.9,4.99,000.00,028.9,027.7,000.0,037.3,030.6,16.0,0000.0,0008.35,0002.34,0001.83
2023-10-04 10:45:00,SystemResetWarning,0831.9,5.00,000.00,028.9,027.7,000.0,037.3,030.6,16.0,0000.0,0008.33,0002.33,0001.85
2023-10-04 10:46:00,SystemResetWarning,0831.9,5.00,000.00,029.0,027.7,000.0,037.4,030.6,15.9,0000.0,0008.37,0002.36,0001.84
2023-10-04 10:47:00,SystemResetWarning,0832.0,5.00,000.00,029.0,027.8,000.0,037.4,030.6,15.9,0000.0,0008.11,0002.30,0001.82
2023-10-04 10:48:00,SystemResetWarning,0832.0,5.00,000.00,029.0,027.8,000.0,037.4,030.7,15.9,0000.0,0007.81,0002.26,0001.81
2023-10-04 10:49:00,SystemResetWarning,0832.0,5.00,000.00,029.0,027.8,000.0,037.4,030.7,15.8,0000.0,0007.74,0002.24,0001.81
2023-10-04 10:50:00,SystemResetWarning,0832.0,5.01,000.00,029.0,027.8,000.0,037.4,030.7,15.8,0000.0,0008.17,0002.25,0001.82
2023-10-04 10:51:00,SystemResetWarning,0832.0,5.00,000.00,029.0,027.8,000.0,037.4,030.7,15.8,0000.0,0008.18,0002.28,0001.81
2023-10-04 10:52:00,SystemResetWarning,0832.0,5.00,000.00,029.1,027.8,000.0,037.4,030.7,15.7,0000.0,0006.60,0002.31,0001.81
2023-10-04 10:53:00,SystemResetWarning,0832.0,5.01,000.00,029.1,027.8,000.0,037.4,030.7,15.7,0000.0,0005.83,0002.30,0001.82
2023-10-04 10:54:00,SystemResetWarning,0832.1,4.99,000.00,029.1,027.8,000.0,037.4,030.7,15.8,0000.0,0005.42,0002.32,0001.82
2023-10-04 10:55:00,SystemResetWarning,0832.1,5.00,000.00,029.1,027.8,000.0,037.5,030.7,15.8,0000.0,0005.67,0002.34,0001.82
2023-10-04 10:56:00,SystemResetWarning,0832.1,5.00,000.00,029.1,027.8,000.0,037.5,030.7,15.8,0000.0,0005.89,0002.36,0001.81
2023-10-04 10:57:00,SystemResetWarning,0832.0,5.00,000.00,029.1,027.8,000.0,037.5,030.7,15.8,0000.0,0005.91,0002.34,0001.80
2023-10-04 10:58:00,SystemResetWarning,0832.1,5.00,000.00,029.1,027.8,000.0,037.5,030.7,15.8,0000.0,0006.08,0002.37,0001.80
2023-10-04 10:59:00,SystemResetWarning,0832.1,5.00,000.00,029.1,027.8,000.0,037.5,030.7,15.8,0000.0,0006.83,0002.42,0001.80
